Location: Unspecified
(35.6961°N, 0.0000°E)
Time: 11:26:22
(UTC+00:00)

Vanguard 2 Rocket - Pass Details

Date: 27 May 2019
Orbit: 554 x 3326 km, 32.9° (Epoch: 16 June)

Event Time Altitude Azimuth Distance (km) Brightness Sun altitude
Rises 03:18:01 0° 225° (SW) 7,086 - -15.8°
Reaches altitude 10° 03:22:50 10° 220° (SW) 6,206 - -15.1°
Exits shadow 03:25:16 15° 217° (SW) 5,772 10.3 -14.7°
Maximum altitude 03:41:57 51° 152° (SSE) 3,660 9.8 -12.1°
Drops below altitude 10° 03:57:04 10° 83° (E) 5,043 11.8 -9.6°
Sets 04:00:28 0° 78° (ENE) 5,734 12.4 -9.1°
